TimeEDT,TemperatureF,Dew PointF,Humidity,Sea Level PressureIn,VisibilityMPH,Wind Direction,Wind SpeedMPH,Gust SpeedMPH,PrecipitationIn,Events,Conditions,WindDirDegrees,DateUTC
12:56 AM,48.0,44.1,86,29.86,-9999.0,Calm,Calm,-,N/A,,Unknown,0,2013-05-20 04:56:00
1:56 AM,46.9,43.0,86,29.84,-9999.0,Calm,Calm,-,N/A,,Unknown,0,2013-05-20 05:56:00
2:56 AM,48.0,44.1,86,29.84,-9999.0,East,3.5,-,N/A,,Unknown,100,2013-05-20 06:56:00
3:56 AM,55.0,48.0,77,29.83,-9999.0,Calm,Calm,-,N/A,,Unknown,0,2013-05-20 07:56:00
4:56 AM,64.0,52.0,65,29.81,-9999.0,Variable,6.9,-,N/A,,Unknown,0,2013-05-20 08:56:00
5:56 AM,63.0,50.0,63,29.80,-9999.0,SSE,6.9,-,N/A,,Unknown,160,2013-05-20 09:56:00
6:56 AM,62.1,51.1,67,29.82,-9999.0,South,11.5,17.3,N/A,,Unknown,170,2013-05-20 10:56:00
7:56 AM,61.0,54.0,78,29.74,-9999.0,SE,15.0,23.0,0.05,,Unknown,130,2013-05-20 11:56:00
8:56 AM,62.1,55.9,80,29.76,-9999.0,South,9.2,17.3,N/A,,Unknown,170,2013-05-20 12:56:00
9:56 AM,64.0,57.0,78,29.78,-9999.0,SSE,16.1,24.2,N/A,,Unknown,150,2013-05-20 13:56:00
10:56 AM,64.9,57.0,75,29.78,-9999.0,SSE,18.4,26.5,N/A,,Unknown,150,2013-05-20 14:56:00
11:56 AM,62.1,57.0,84,29.79,-9999.0,SSE,8.1,-,0.17,,Unknown,150,2013-05-20 15:56:00
12:56 PM,63.0,57.9,84,29.75,-9999.0,SE,16.1,23.0,0.08,,Unknown,140,2013-05-20 16:56:00
1:56 PM,60.1,55.9,86,29.75,-9999.0,SE,6.9,18.4,0.36,,Unknown,140,2013-05-20 17:56:00
2:56 PM,60.1,55.0,83,29.73,-9999.0,SSW,9.2,-,N/A,,Unknown,200,2013-05-20 18:56:00
3:56 PM,66.0,59.0,78,29.72,-9999.0,South,12.7,18.4,N/A,,Unknown,170,2013-05-20 19:56:00
4:56 PM,66.9,59.0,76,29.72,-9999.0,SE,8.1,19.6,N/A,,Unknown,140,2013-05-20 20:56:00
5:56 PM,66.9,59.0,76,29.71,-9999.0,South,8.1,21.9,N/A,,Unknown,170,2013-05-20 21:56:00
6:56 PM,66.9,59.0,76,29.71,-9999.0,SE,6.9,-,N/A,,Unknown,140,2013-05-20 22:56:00
7:56 PM,66.9,59.0,76,29.72,-9999.0,SE,5.8,-,N/A,,Unknown,140,2013-05-20 23:56:00
8:56 PM,64.9,59.0,81,29.71,-9999.0,SE,5.8,-,N/A,,Unknown,130,2013-05-21 00:56:00
9:56 PM,64.0,57.9,80,29.71,-9999.0,Variable,5.8,-,N/A,,Unknown,0,2013-05-21 01:56:00
10:56 PM,62.1,55.9,80,29.73,-9999.0,South,9.2,16.1,N/A,,Unknown,180,2013-05-21 02:56:00
11:56 PM,61.0,55.0,81,29.73,-9999.0,SSW,6.9,-,N/A,,Unknown,200,2013-05-21 03:56:00